| time (UTC) | temp F | wind direction | speed MPH | gust MPH | rain 1hr in | rain 24hr in | rain mn in | humidity % | barometer mb |
| 20260904225020 | 81 | 315 | 1.0 | 3.0 | 0.00 | 0.03 | 0.00 | 46 | 1010.3 |
| 20260904224020 | 82 | 315 | 2.0 | 5.0 | 0.00 | 0.03 | 0.00 | 52 | 1010.1 |
| 20260904223020 | 83 | 315 | 1.0 | 4.0 | 0.00 | 0.03 | 0.00 | 51 | 1010.2 |
| 20260904222020 | 84 | 315 | 1.0 | 3.0 | 0.00 | 0.03 | 0.00 | 51 | 1010.2 |
| 20260904221020 | 84 | 0.0 | 2.0 | 0.00 | 0.03 | 0.00 | 51 | 1010.3 | |
| 20260904220020 | 85 | 0.0 | 2.0 | 0.00 | 0.03 | 0.00 | 52 | 1010.3 | |
| 20260904215020 | 85 | 0.0 | 1.0 | 0.00 | 0.03 | 0.00 | 51 | 1010.4 | |
| 20260904214445 | 84 | 0.0 | 3.0 | 0.00 | 0.03 | 0.00 | 55 | 1010.7 | |
| 20260904213020 | 84 | 315 | 1.0 | 4.0 | 0.00 | 0.03 | 0.00 | 60 | 1010.8 |
| 20260904212020 | 84 | 315 | 2.0 | 5.0 | 0.00 | 0.03 | 0.00 | 61 | 1010.9 |
| 20260904211020 | 83 | 315 | 1.0 | 2.0 | 0.00 | 0.03 | 0.00 | 53 | 1010.9 |
| 20260904210020 | 83 | 315 | 1.0 | 4.0 | 0.00 | 0.03 | 0.00 | 60 | 1010.8 |
| 20260904205020 | 84 | 315 | 1.0 | 4.0 | 0.00 | 0.03 | 0.00 | 62 | 1010.8 |
| 20260904204020 | 86 | 315 | 2.0 | 5.0 | 0.00 | 0.03 | 0.00 | 62 | 1010.9 |
| 20260904203030 | 85 | 315 | 2.0 | 5.0 | 0.00 | 0.03 | 0.00 | 62 | 1010.8 |
| 20260904202020 | 85 | 315 | 5.0 | 8.0 | 0.00 | 0.03 | 0.00 | 62 | 1011.0 |
| 20260904201230 | 85 | 315 | 5.0 | 11.0 | 0.00 | 0.03 | 0.00 | 61 | 1011.0 |
| 20260904200019 | 85 | 315 | 3.0 | 9.0 | 0.00 | 0.03 | 0.00 | 62 | 1011.0 |
| 20260904195020 | 85 | 293 | 2.0 | 8.0 | 0.00 | 0.03 | 0.00 | 62 | 1010.9 |
| 20260904194020 | 84 | 293 | 2.0 | 4.0 | 0.00 | 0.03 | 0.00 | 62 | 1011.1 |
| 20260904193020 | 83 | 293 | 3.0 | 9.0 | 0.00 | 0.03 | 0.00 | 62 | 1011.2 |
| 20260904192020 | 83 | 293 | 1.0 | 4.0 | 0.00 | 0.03 | 0.00 | 62 | 1011.3 |
| 20260904191230 | 83 | 315 | 2.0 | 8.0 | 0.00 | 0.03 | 0.00 | 62 | 1011.3 |
| 20260904190020 | 84 | 293 | 3.0 | 9.0 | 0.00 | 0.03 | 0.00 | 62 | 1011.5 |
| 20260904185019 | 84 | 293 | 2.0 | 6.0 | 0.00 | 0.03 | 0.00 | 62 | 1011.8 |
| 20260904184233 | 84 | 293 | 3.0 | 8.0 | 0.00 | 0.03 | 0.00 | 62 | 1012.1 |
| 20260904183020 | 84 | 293 | 3.0 | 9.0 | 0.00 | 0.03 | 0.00 | 61 | 1012.4 |
| 20260904182021 | 83 | 293 | 3.0 | 7.0 | 0.00 | 0.03 | 0.00 | 62 | 1012.4 |
| 20260904181231 | 83 | 293 | 3.0 | 8.0 | 0.00 | 0.03 | 0.00 | 59 | 1012.5 |
| 20260904180020 | 82 | 293 | 3.0 | 6.0 | 0.00 | 0.03 | 0.00 | 61 | 1012.7 |
| 20260904175020 | 82 | 293 | 5.0 | 10.0 | 0.00 | 0.03 | 0.00 | 62 | 1012.6 |
| 20260904174018 | 83 | 270 | 4.0 | 9.0 | 0.00 | 0.03 | 0.00 | 61 | 1012.6 |
| 20260904173020 | 82 | 270 | 3.0 | 7.0 | 0.00 | 0.03 | 0.00 | 61 | 1012.6 |
| 20260904172021 | 83 | 270 | 3.0 | 8.0 | 0.00 | 0.03 | 0.00 | 61 | 1012.6 |
| 20260904171020 | 82 | 270 | 4.0 | 9.0 | 0.00 | 0.03 | 0.00 | 62 | 1012.6 |
| 20260904170020 | 82 | 270 | 2.0 | 7.0 | 0.00 | 0.03 | 0.00 | 61 | 1012.7 |
| 20260904165229 | 82 | 270 | 4.0 | 7.0 | 0.00 | 0.03 | 0.00 | 62 | 1012.9 |
| 20260904164018 | 83 | 270 | 2.0 | 6.0 | 0.00 | 0.03 | 0.00 | 62 | 1012.8 |
| 20260904163020 | 82 | 270 | 1.0 | 4.0 | 0.00 | 0.03 | 0.00 | 61 | 1013.0 |
| 20260904162019 | 83 | 293 | 2.0 | 7.0 | 0.00 | 0.03 | 0.00 | 62 | 1013.0 |
| 20260904161018 | 82 | 0.0 | 3.0 | 0.00 | 0.03 | 0.00 | 61 | 1013.1 | |
| 20260904160446 | 81 | 293 | 2.0 | 8.0 | 0.00 | 0.03 | 0.00 | 61 | 1013.2 |
| 20260904155019 | 80 | 293 | 3.0 | 9.0 | 0.00 | 0.03 | 0.00 | 58 | 1013.1 |
| 20260904154019 | 81 | 293 | 2.0 | 8.0 | 0.00 | 0.03 | 0.00 | 58 | 1013.2 |
| 20260904153444 | 81 | 293 | 1.0 | 4.0 | 0.00 | 0.03 | 0.00 | 58 | 1013.3 |
| 20260904152232 | 80 | 293 | 2.0 | 6.0 | 0.00 | 0.03 | 0.00 | 59 | 1013.2 |
| 20260904151019 | 79 | 293 | 4.0 | 7.0 | 0.00 | 0.03 | 0.00 | 58 | 1013.1 |
| 20260904150229 | 80 | 293 | 1.0 | 4.0 | 0.00 | 0.03 | 0.00 | 49 | 1013.1 |
| 20260904145020 | 79 | 293 | 1.0 | 4.0 | 0.00 | 0.03 | 0.00 | 49 | 1013.3 |
| 20260904144019 | 79 | 315 | 1.0 | 4.0 | 0.00 | 0.03 | 0.00 | 43 | 1013.4 |
| 20260904143018 | 78 | 315 | 3.0 | 10.0 | 0.00 | 0.03 | 0.00 | 44 | 1013.3 |
| 20260904142018 | 78 | 315 | 2.0 | 9.0 | 0.00 | 0.03 | 0.00 | 40 | 1013.2 |
| 20260904141018 | 78 | 315 | 3.0 | 10.0 | 0.00 | 0.03 | 0.00 | 30 | 1013.1 |
| 20260904140019 | 77 | 293 | 3.0 | 5.0 | 0.00 | 0.03 | 0.00 | 18 | 1013.1 |
| 20260904135018 | 77 | 293 | 3.0 | 6.0 | 0.00 | 0.03 | 0.00 | 100 | 1013.0 |
| 20260904134019 | 76 | 293 | 4.0 | 8.0 | 0.00 | 0.03 | 0.00 | 100 | 1013.1 |
| 20260904133019 | 76 | 338 | 2.0 | 6.0 | 0.00 | 0.03 | 0.00 | 100 | 1013.1 |
| 20260904132019 | 75 | 0 | 2.0 | 4.0 | 0.00 | 0.03 | 0.00 | 100 | 1013.2 |
| 20260904131229 | 74 | 0 | 1.0 | 3.0 | 0.00 | 0.03 | 0.00 | 100 | 1013.3 |
| 20260904130018 | 71 | 0.0 | 2.0 | 0.00 | 0.03 | 0.00 | 100 | 1013.3 | |
| 20260904125019 | 70 | 0 | 2.0 | 3.0 | 0.00 | 0.03 | 0.00 | 100 | 1013.3 |
| 20260904124019 | 71 | 0 | 1.0 | 3.0 | 0.00 | 0.03 | 0.00 | 100 | 1013.4 |
| 20260904123019 | 71 | 0.0 | 2.0 | 0.00 | 0.03 | 0.00 | 100 | 1013.6 | |
| 20260904122018 | 70 | 0.0 | 6.0 | 0.00 | 0.03 | 0.00 | 100 | 1013.4 | |
| 20260904121019 | 70 | 0.0 | 0.0 | 0.00 | 0.03 | 0.00 | 100 | 1013.2 | |
| 20260904120019 | 69 | 0.0 | 0.0 | 0.00 | 0.03 | 0.00 | 100 | 1013.6 | |
| 20260904115019 | 68 | 0.0 | 0.0 | 0.00 | 0.03 | 0.00 | 100 | 1013.5 | |
| 20260904114019 | 68 | 0.0 | 1.0 | 0.00 | 0.03 | 0.00 | 100 | 1013.6 | |
| 20260904113019 | 67 | 0.0 | 0.0 | 0.00 | 0.03 | 0.00 | 100 | 1013.7 | |
| 20260904112019 | 67 | 0.0 | 0.0 | 0.00 | 0.03 | 0.00 | 100 | 1013.6 | |
| 20260904111230 | 67 | 0.0 | 0.0 | 0.00 | 0.03 | 0.00 | 100 | 1013.4 | |
| 20260904110232 | 66 | 0.0 | 1.0 | 0.00 | 0.03 | 0.00 | 100 | 1013.4 | |
| 20260904105019 | 66 | 315 | 1.0 | 2.0 | 0.00 | 0.03 | 0.00 | 100 | 1013.3 |
| 20260904104442 | 65 | 0.0 | 2.0 | 0.00 | 0.04 | 0.00 | 100 | 1013.1 | |
| 20260904103229 | 65 | 0.0 | 0.0 | 0.00 | 0.05 | 0.00 | 100 | 1012.9 | |
| 20260904102019 | 65 | 0.0 | 0.0 | 0.00 | 0.06 | 0.00 | 100 | 1012.6 | |
| 20260904101019 | 66 | 0.0 | 0.0 | 0.00 | 0.08 | 0.00 | 100 | 1012.6 | |
| 20260904100019 | 66 | 0.0 | 0.0 | 0.00 | 0.10 | 0.00 | 100 | 1012.7 | |
| 20260904095019 | 66 | 0.0 | 0.0 | 0.00 | 0.10 | 0.00 | 100 | 1012.6 | |
| 20260904094019 | 66 | 0.0 | 0.0 | 0.00 | 0.13 | 0.00 | 100 | 1012.5 | |
| 20260904093019 | 66 | 0.0 | 0.0 | 0.00 | 0.16 | 0.00 | 100 | 1012.7 | |
| 20260904092444 | 66 | 0.0 | 0.0 | 0.00 | 0.18 | 0.00 | 100 | 1012.6 | |
| 20260904091019 | 66 | 0.0 | 0.0 | 0.00 | 0.20 | 0.00 | 100 | 1012.5 | |
| 20260904090019 | 67 | 0.0 | 0.0 | 0.00 | 0.21 | 0.00 | 100 | 1012.5 | |
| 20260904085019 | 67 | 0.0 | 0.0 | 0.00 | 0.24 | 0.00 | 100 | 1012.6 | |
| 20260904084019 | 67 | 0.0 | 1.0 | 0.00 | 0.30 | 0.00 | 100 | 1012.8 | |
| 20260904083019 | 67 | 0.0 | 0.0 | 0.00 | 0.30 | 0.00 | 100 | 1012.7 | |
| 20260904082019 | 67 | 0.0 | 0.0 | 0.00 | 0.30 | 0.00 | 100 | 1012.6 | |
| 20260904081232 | 66 | 0.0 | 0.0 | 0.00 | 0.30 | 0.00 | 100 | 1012.7 | |
| 20260904080019 | 66 | 0.0 | 0.0 | 0.00 | 0.30 | 0.00 | 100 | 1012.6 | |
| 20260904075019 | 66 | 0.0 | 0.0 | 0.00 | 0.31 | 0.00 | 100 | 1012.4 | |
| 20260904074019 | 66 | 0.0 | 0.0 | 0.00 | 0.31 | 0.00 | 100 | 1012.4 | |
| 20260904073019 | 66 | 0.0 | 0.0 | 0.00 | 0.31 | 0.00 | 100 | 1012.2 | |
| 20260904072019 | 66 | 0.0 | 0.0 | 0.00 | 0.33 | 0.00 | 100 | 1012.0 | |
| 20260904071019 | 66 | 0.0 | 0.0 | 0.00 | 0.41 | 0.00 | 100 | 1012.0 | |
| 20260904070019 | 66 | 0.0 | 0.0 | 0.00 | 0.42 | 0.00 | 100 | 1011.7 | |
| 20260904065230 | 66 | 0.0 | 0.0 | 0.00 | 0.43 | 0.00 | 100 | 1011.7 | |
| 20260904064020 | 66 | 0.0 | 0.0 | 0.00 | 0.43 | 0.00 | 100 | 1011.4 | |
| 20260904063019 | 66 | 0.0 | 0.0 | 0.00 | 0.43 | 0.00 | 100 | 1011.3 | |
| 20260904062019 | 66 | 0.0 | 0.0 | 0.00 | 0.43 | 0.00 | 100 | 1011.4 | |
| 20260904061019 | 67 | 0.0 | 0.0 | 0.00 | 0.43 | 0.00 | 100 | 1010.9 | |
| 20260904060019 | 67 | 0.0 | 0.0 | 0.00 | 0.43 | 0.00 | 100 | 1011.0 | |
| 20260904055019 | 67 | 0.0 | 3.0 | 0.00 | 0.43 | 0.00 | 100 | 1010.8 | |
| 20260904054019 | 67 | 315 | 1.0 | 5.0 | 0.00 | 0.43 | 0.00 | 100 | 1011.0 |
| 20260904053019 | 67 | 0.0 | 0.0 | 0.00 | 0.43 | 0.00 | 100 | 1011.1 | |
| 20260904052019 | 68 | 0.0 | 2.0 | 0.00 | 0.43 | 0.00 | 100 | 1011.1 | |
| 20260904051512 | 67 | 315 | 0.0 | 2.0 | 0.00 | 0.43 | 0.00 | 100 | 1010.3 |
| 20260904050520 | 68 | 0.0 | 0.0 | 0.00 | 0.43 | 0.00 | 100 | 1011.2 | |
| 20260904045520 | 68 | 0.0 | 1.0 | 0.00 | 0.43 | 0.00 | 100 | 1011.0 | |
| 20260904044520 | 68 | 0.0 | 2.0 | 0.00 | 0.43 | 0.00 | 100 | 1011.2 | |
| 20260904043943 | 69 | 315 | 1.0 | 3.0 | 0.00 | 0.43 | 0.00 | 100 | 1011.4 |
| 20260904042731 | 69 | 0.0 | 1.0 | 0.01 | 0.43 | 0.00 | 100 | 1011.7 | |
| 20260904041520 | 70 | 315 | 1.0 | 3.0 | 0.01 | 0.43 | 0.00 | 100 | 1011.8 |
| 20260904040946 | 70 | 315 | 1.0 | 3.0 | 0.01 | 0.43 | 0.00 | 100 | 1012.1 |
| 20260904035519 | 72 | 0.0 | 2.0 | 0.01 | 0.43 | 0.43 | 100 | 1012.3 | |
| 20260904034519 | 73 | 0.0 | 3.0 | 0.01 | 0.43 | 0.43 | 100 | 1012.4 | |
| 20260904033944 | 73 | 315 | 3.0 | 6.0 | 0.01 | 0.43 | 0.43 | 100 | 1012.6 |
| 20260904032519 | 73 | 315 | 3.0 | 7.0 | 0.00 | 0.42 | 0.42 | 100 | 1013.0 |
| 20260904031519 | 72 | 315 | 3.0 | 11.0 | 0.00 | 0.42 | 0.42 | 100 | 1013.1 |
| 20260904030519 | 73 | 225 | 4.0 | 8.0 | 0.00 | 0.42 | 0.42 | 100 | 1012.9 |
| 20260904025519 | 73 | 225 | 1.0 | 2.0 | 0.00 | 0.42 | 0.42 | 100 | 1013.1 |
| 20260904024519 | 73 | 0.0 | 0.0 | 0.01 | 0.42 | 0.42 | 100 | 1013.1 | |
| 20260904023519 | 74 | 0.0 | 0.0 | 0.02 | 0.42 | 0.42 | 100 | 1013.2 | |
| 20260904022520 | 74 | 0.0 | 1.0 | 0.02 | 0.42 | 0.42 | 100 | 1013.1 | |
| 20260904021519 | 74 | 0.0 | 2.0 | 0.02 | 0.42 | 0.42 | 100 | 1012.7 | |
| 20260904020519 | 74 | 0.0 | 0.0 | 0.02 | 0.42 | 0.42 | 100 | 1012.4 | |
| 20260904015520 | 74 | 0.0 | 0.0 | 0.02 | 0.42 | 0.42 | 100 | 1012.6 | |
| 20260904014519 | 74 | 225 | 1.0 | 2.0 | 0.01 | 0.41 | 0.41 | 100 | 1012.7 |
| 20260904013519 | 74 | 0.0 | 0.0 | 0.00 | 0.40 | 0.40 | 100 | 1012.4 | |
| 20260904012733 | 74 | 0.0 | 0.0 | 0.00 | 0.40 | 0.40 | 100 | 1012.4 | |
| 20260904011519 | 74 | 0.0 | 0.0 | 0.00 | 0.40 | 0.40 | 100 | 1012.3 | |
| 20260904010730 | 74 | 0.0 | 0.0 | 0.00 | 0.40 | 0.40 | 100 | 1012.2 | |
| 20260904005519 | 75 | 0.0 | 0.0 | 0.00 | 0.40 | 0.40 | 100 | 1012.2 | |
| 20260904004521 | 76 | 225 | 1.0 | 3.0 | 0.00 | 0.40 | 0.40 | 100 | 1012.2 |
| 20260904003519 | 76 | 0.0 | 0.0 | 0.00 | 0.40 | 0.40 | 100 | 1012.3 | |
| 20260904002519 | 77 | 0.0 | 0.0 | 0.00 | 0.40 | 0.40 | 100 | 1012.1 | |
| 20260904001519 | 77 | 0.0 | 0.0 | 0.00 | 0.40 | 0.40 | 100 | 1012.3 | |
| 20260904000519 | 78 | 0.0 | 0.0 | 0.00 | 0.40 | 0.40 | 100 | 1012.4 | |
| 20260903235519 | 78 | 0.0 | 0.0 | 0.00 | 0.40 | 0.40 | 100 | 1012.5 | |
| 20260903234732 | 79 | 0.0 | 0.0 | 0.00 | 0.40 | 0.40 | 100 | 1012.4 | |
| 20260903233519 | 80 | 0.0 | 0.0 | 0.00 | 0.40 | 0.40 | 100 | 1012.2 | |
| 20260903232520 | 80 | 0.0 | 0.0 | 0.00 | 0.40 | 0.40 | 100 | 1011.9 | |
| 20260903231943 | 81 | 0.0 | 0.0 | 0.00 | 0.40 | 0.40 | 100 | 1011.9 | |
| 20260903230519 | 81 | 0.0 | 0.0 | 0.00 | 0.40 | 0.40 | 100 | 1012.1 |